Simultaneous Nadir Overpasses (SNOs) Predictions

Prediction of SNOs between METOP-B and TERRA Satellite Orbit:

Table of predicted SNOs for the next 14.0 days since TLE Epoch: 6/7/2025
Index Date (METOP-B) Time (METOP-B) Lat,Lon (METOP-B) SZA (METOP-B ) Date (TERRA) Time (TERRA) Lat,Lon (TERRA) SZA (TERRA ) Distance(km) Time Diff (sec)
1 06/07/2025 09:50:53 -78.13,-145.53 124.72 06/07/2025 09:51:38 -78.13,-145.58 124.72 1.18 45
2 06/07/2025 10:41:22 78.57, 24.19 55.75 06/07/2025 10:40:46 78.57, 24.18 55.75 0.17 36
3 06/09/2025 23:30:24 78.28,-169.66 55.22 06/09/2025 23:30:37 78.28,-169.72 55.22 1.43 13
4 06/10/2025 00:20:54 -78.74, 0.29 124.28 06/10/2025 00:19:47 -78.74, 0.22 124.29 1.61 67
5 06/12/2025 12:19:30 77.82, -4.27 54.57 06/12/2025 12:20:31 77.83, -4.19 54.58 2.16 61
6 06/12/2025 13:09:58 -78.38, 165.95 124.85 06/12/2025 13:09:39 -78.39, 166.01 124.84 1.71 19
7 06/15/2025 01:58:56 -78.21, -27.25 125.16 06/15/2025 01:59:26 -78.20, -27.36 125.17 2.72 30
8 06/15/2025 02:49:26 78.60, 142.23 55.26 06/15/2025 02:48:35 78.60, 142.21 55.25 0.53 51
9 06/17/2025 14:50:52 -69.39, 117.29 132.54 06/17/2025 14:52:05 -69.14, 118.94 133.06 70.95 73
10 06/17/2025 15:38:29 78.26, -51.92 54.81 06/17/2025 15:38:26 78.26, -51.89 54.81 0.57 3
11 06/20/2025 04:27:31 77.95, 114.22 54.45 06/20/2025 04:28:16 77.95, 114.23 54.45 0.23 45



Historial Predications of SNOs between METOP-B and TERRA
